カタログに戻る

STARLINK-35725

運用中通信SSO
NORAD 67565·PAYLOAD·🇺🇸 United States

打ち上げ Jan 25, 2026 から Vandenberg Space Force Base

Loading…

次のパス (今後24時間)

TLE

最新Source: CelesTrak SupGP

元期: Sep 14, 2026, 21:34 UTC

1 67565C 26016E   26257.89909722 -.00013467  00000+0 -41809-3 0  2576
2 67565  97.2848 316.5949 0001005  87.6508 105.8271 15.33443428    18

AllMySatでSTARLINK-35725をリアルタイム追跡

Download on the App Store